Weather reports worldwide

Advertisment
Sortland, Norway (1167): temperature & dewpoint: 03.12.2019 21:00:00 - 09.12.2019 21:00:00 (CET)Sortland, Norway (1167): wind speed: 03.12.2019 21:00:00 - 09.12.2019 21:00:00 (CET)Sortland, Norway (1167): wind direction: 03.12.2019 21:00:00 - 09.12.2019 21:00:00 (CET)Sortland, Norway (1167): reduced air pressure: 03.12.2019 21:00:00 - 09.12.2019 21:00:00 (CET)Sortland, Norway (1167): visibility: 03.12.2019 21:00:00 - 09.12.2019 21:00:00 (CET)
Date & Time tt [°C] td [°C] ff [km/h] ff [kn] dd ppp [hPa] vv [km]
09.12.2019 21:00:00 - - - - - - -
09.12.2019 20:00:00 - - - - - - -
09.12.2019 19:00:00 - - - - - - -
09.12.2019 18:00:00 - - - - - - -
09.12.2019 17:00:00 - - - - - - -
09.12.2019 16:00:00 - - - - - - -
09.12.2019 15:00:00 - - - - - - -
09.12.2019 14:00:00 - - - - - - -
09.12.2019 13:00:00 - - - - - - -
09.12.2019 12:00:00 - - - - - - -
09.12.2019 11:00:00 - - - - - - -
09.12.2019 10:00:00 - - - - - - -
09.12.2019 09:00:00 - - - - - - -
09.12.2019 08:00:00 - - - - - - -
09.12.2019 07:00:00 - - - - - - -
09.12.2019 06:00:00 - - - - - - -
09.12.2019 05:00:00 - - - - - - -
09.12.2019 04:00:00 - - - - - - -
09.12.2019 03:00:00 - - - - - - -
09.12.2019 02:00:00 - - - - - - -
09.12.2019 01:00:00 - - - - - - -
09.12.2019 00:00:00 - - - - - - -
08.12.2019 23:00:00 - - - - - - -
08.12.2019 22:00:00 - - - - - - -
08.12.2019 21:00:00 - - - - - - -
08.12.2019 20:00:00 - - - - - - -
08.12.2019 19:00:00 - - - - - - -
08.12.2019 18:00:00 - - - - - - -
08.12.2019 17:00:00 - - - - - - -
08.12.2019 16:00:00 - - - - - - -
08.12.2019 15:00:00 - - - - - - -
08.12.2019 14:00:00 - - - - - - -
08.12.2019 13:00:00 - - - - - - -
08.12.2019 12:00:00 - - - - - - -
08.12.2019 11:00:00 - - - - - - -
08.12.2019 10:00:00 - - - - - - -
08.12.2019 09:00:00 - - - - - - -
08.12.2019 08:00:00 - - - - - - -
08.12.2019 07:00:00 - - - - - - -
08.12.2019 06:00:00 - - - - - - -
08.12.2019 05:00:00 - - - - - - -
08.12.2019 04:00:00 - - - - - - -
08.12.2019 03:00:00 - - - - - - -
08.12.2019 02:00:00 - - - - - - -
08.12.2019 01:00:00 - - - - - - -
08.12.2019 00:00:00 - - - - - - -
07.12.2019 23:00:00 - - - - - - -
07.12.2019 22:00:00 - - - - - - -
07.12.2019 21:00:00 - - - - - - -
07.12.2019 20:00:00 - - - - - - -
07.12.2019 19:00:00 - - - - - - -
07.12.2019 18:00:00 - - - - - - -
07.12.2019 17:00:00 - - - - - - -
07.12.2019 16:00:00 - - - - - - -
07.12.2019 15:00:00 - - - - - - -
07.12.2019 14:00:00 - - - - - - -
07.12.2019 13:00:00 - - - - - - -
07.12.2019 12:00:00 - - - - - - -
07.12.2019 11:00:00 - - - - - - -
07.12.2019 10:00:00 - - - - - - -
07.12.2019 09:00:00 - - - - - - -
07.12.2019 08:00:00 - - - - - - -
07.12.2019 07:00:00 - - - - - - -
07.12.2019 06:00:00 - - - - - - -
07.12.2019 05:00:00 - - - - - - -
07.12.2019 04:00:00 - - - - - - -
07.12.2019 03:00:00 - - - - - - -
07.12.2019 02:00:00 - - - - - - -
07.12.2019 01:00:00 - - - - - - -
07.12.2019 00:00:00 - - - - - - -
06.12.2019 23:00:00 - - - - - - -
06.12.2019 22:00:00 - - - - - - -
06.12.2019 21:00:00 - - - - - - -
06.12.2019 20:00:00 - - - - - - -
06.12.2019 19:00:00 - - - - - - -
06.12.2019 18:00:00 - - - - - - -
06.12.2019 17:00:00 - - - - - - -
06.12.2019 16:00:00 - - - - - - -
06.12.2019 15:00:00 - - - - - - -
06.12.2019 14:00:00 - - - - - - -
06.12.2019 13:00:00 3,5 -2,4 - - - 972,5 35
06.12.2019 12:00:00 - - - - - - -
06.12.2019 11:00:00 - - - - - - -
06.12.2019 10:00:00 3,5 -2,2 - - - 972,8 45
06.12.2019 09:00:00 - - - - - - -
06.12.2019 08:00:00 - - - - - - -
06.12.2019 07:00:00 2,6 -1,4 14 8 S 972,7 60
06.12.2019 06:00:00 - - - - - - -
06.12.2019 05:00:00 - - - - - - -
06.12.2019 04:00:00 0,4 -0,6 0 0 N 973,0 80
06.12.2019 03:00:00 - - - - - - -
06.12.2019 02:00:00 - - - - - - -
06.12.2019 01:00:00 1,2 0,3 14 8 S 972,4 60
06.12.2019 00:00:00 - - - - - - -
05.12.2019 23:00:00 - - - - - - -
05.12.2019 22:00:00 1,4 0,5 13 7 S 970,6 55
05.12.2019 21:00:00 - - - - - - -
05.12.2019 20:00:00 - - - - - - -
05.12.2019 19:00:00 2,1 0,6 13 7 S 968,8 30
05.12.2019 18:00:00 - - - - - - -
05.12.2019 17:00:00 - - - - - - -
05.12.2019 16:00:00 3,7 0,4 13 7 S 968,6 30
05.12.2019 15:00:00 - - - - - - -
05.12.2019 14:00:00 - - - - - - -
05.12.2019 13:00:00 1,5 1,1 4 2 SE 970,7 30
05.12.2019 12:00:00 - - - - - - -
05.12.2019 11:00:00 - - - - - - -
05.12.2019 10:00:00 3,4 1,8 7 4 S 972,6 50
05.12.2019 09:00:00 - - - - - - -
05.12.2019 08:00:00 - - - - - - -
05.12.2019 07:00:00 3,4 1,6 9 5 SSW 974,8 30
05.12.2019 06:00:00 - - - - - - -
05.12.2019 05:00:00 - - - - - - -
05.12.2019 04:00:00 4,6 3,1 11 6 SSW 976,1 30
05.12.2019 03:00:00 - - - - - - -
05.12.2019 02:00:00 - - - - - - -
05.12.2019 01:00:00 4,5 2,7 24 13 S 976,4 30
05.12.2019 00:00:00 - - - - - - -
04.12.2019 23:00:00 - - - - - - -
04.12.2019 22:00:00 6,6 2,3 11 6 SSW 981,0 55
04.12.2019 21:00:00 - - - - - - -
04.12.2019 20:00:00 - - - - - - -
04.12.2019 19:00:00 8,0 1,8 20 11 WSW 984,0 55
04.12.2019 18:00:00 - - - - - - -
04.12.2019 17:00:00 - - - - - - -
04.12.2019 16:00:00 6,1 5,7 18 10 SSW 983,9 30
04.12.2019 15:00:00 - - - - - - -
04.12.2019 14:00:00 - - - - - - -
04.12.2019 13:00:00 6,1 5,7 13 7 SSW 986,0 30
04.12.2019 12:00:00 - - - - - - -
04.12.2019 11:00:00 - - - - - - -
04.12.2019 10:00:00 5,8 5,8 16 9 S 987,4 30
04.12.2019 09:00:00 - - - - - - -
04.12.2019 08:00:00 - - - - - - -
04.12.2019 07:00:00 5,6 5,3 13 7 SSW 986,3 30
04.12.2019 06:00:00 - - - - - - -
04.12.2019 05:00:00 - - - - - - -
04.12.2019 04:00:00 5,6 5,3 11 6 SSW 985,4 30
04.12.2019 03:00:00 - - - - - - -
04.12.2019 02:00:00 - - - - - - -
04.12.2019 01:00:00 5,0 - 16 9 S 985,1 30
04.12.2019 00:00:00 - - - - - - -
03.12.2019 23:00:00 - - - - - - -
03.12.2019 22:00:00 4,8 - 13 7 S 985,5 30
03.12.2019 21:00:00 - - - - - - -

tt = temperature
td = dewpoint
ff = wind speed
dd = wind direction
ppp = reduced air pressure
vv = visibility

Next stations